www.pogodaiklimat.ru

Погода и климат >> Архив погоды >> Финляндия >> Раутаваара Яла-Луоста


ПОГОДА в Раутаваара Яла-Луоста

  • Прогноз погоды в Раутаваара Яла-Луоста
  • Монитор погоды в Раутаваара Яла-Луоста

АРХИВ ПОГОДЫ в Раутаваара Яла-Луоста

Время (UTC), дата Ветер
(напр.,м/с)
 
Видим.   Явления Облачность Т
(С)
Тd
(С)
f
(%)
Тe
(С)
Тes
(С)
Комфортность P
(гПа)
Po
(гПа)
Тmin
(С)
Tmax
(С)
R
(мм)
R24
(мм)
S
(см)
12 14.08 Ю 3-6
{8}
35 км 4/0 1000 м
[]
+20.2 +10.3 53 +22 +27 комфорт 1003.3 984.1
15 14.08 Ю 3-6
{9}
26 км в посл. час дождь {ливн. осадки} 6/4 1000 м
[]
+14.9 +13.0 88 +14 +15 1003.8 984.3
18 14.08 Ю 3-6
{7}
50 км {ливн. осадки, дождь} 9/9 300 м
[]
+13.0 +10.9 87 +12 +12 1004.4 984.8 +13.0 +20.9
21 14.08 Ю 3-5
{5}
6000 м слаб. дождь {морось} 9/6 1500 м
[]
+11.4 +11.2 99 +9 +9 1004.3 984.5 2
00 15.08 Ю 2-4
{6}
21 км {ливн. осадки, дождь} 9/4 1000 м
[]
+10.5 +10.3 99 +9 +9 1004.0 984.2
03 15.08 Ю 3-5
{5}
15 км 9/9 100 м
[]
+10.9 +10.8 99 +9 +9 1003.4 983.6
06 15.08 ЮЗ 3-5
{5}
35 км в посл. час морось {дождь} 9/9 100 м
[]
+12.1 +11.6 97 +10 +11 1003.5 983.8 +9.3 +13.0 3
09 15.08 ЮЗ 3-6
{6}
35 км {ливн. осадки} 9/9 600 м
[]
+14.3 +11.3 82 +13 +14 1003.3 983.8
12 15.08 ЮЗ 3-7
{7}
45 км в посл. час дождь {ливн. осадки} 9/9 300 м
[]
+15.0 +10.5 74 +14 +15 1003.2 983.7
15 15.08 ЮЗ 2-3
{6}
8000 м слаб. ливневой дождь 9/9 1000 м
[]
+12.7 +11.8 94 +12 +12 1004.4 984.7 1
18 15.08 ЮЗ 2-4
{4}
23 км слаб. дождь 9/1 300 м
[]
+12.4 +11.5 94 +11 +11 1005.2 985.5 +11.8 +15.8 1
21 15.08 ЮЗ 3-5
{6}
7000 м дымка {ливн. осадки, дождь} 10/10 100 м
[]
+11.9 +11.4 97 +10 +10 1006.4 986.6
00 16.08 ЮЗ 2-4
{4}
15 км {ливн. осадки, дождь} 10/10 200 м
[]
+11.5 +11.3 99 +10 +10 1007.6 987.8
03 16.08 ЮЗ 2-3
{4}
13 км ясно +10.1 +9.9 99 +8 +9 1008.6 988.7
06 16.08 ЮЗ 3-6
{8}
45 км 6/6 300 м
[]
+13.7 +11.2 85 +13 +14 1009.6 989.9 +10.1 +13.8 1
09 16.08 ЮЗ 3-8
{9}
40 км 4/4 600 м
[]
+17.1 +11.4 69 +17 +21 1010.4 990.9
12 16.08 З 3-7
{7}
24 км 9/6 1000 м
[]
+18.5 +7.8 50 +19 +21 1011.3 991.9
15 16.08 З 2-5
{9}
40 км ясно +18.4 +8.4 52 +19 +22 1011.9 992.4
18 16.08 штиль 0
{2}
50 км ясно +11.9 +9.8 87 +11 +11 1013.2 993.3 +11.9 +19.6
21 16.08 штиль 0-1
{1}
16 км ясно +7.7 +7.5 99 +7 +7 1014.5 994.2
00 17.08 Ю 1-2
{2}
14 км ясно +6.1 +5.9 99 +5 +5 1015.5 995.1
03 17.08 Ю 2-2
{3}
16 км 4/0
[]
+8.0 +7.8 99 +6 +6 1015.7 995.5
06 17.08 Ю 2-3
{4}
40 км 6/6
[]
+16.7 +12.2 75 +17 +18 1015.3 995.7 +5.9 +16.7
09 17.08 Ю 5-9
{9}
30 км ясно +20.3 +11.2 56 +22 +26 комфорт 1014.8 995.5
12 17.08 Ю 4-9
{10}
30 км 6/1 1000 м
[]
+21.7 +11.0 51 +24 +27 комфорт 1014.4 995.1
15 17.08 Ю 4-7
{9}
40 км 1/0 1000 м
[]
+21.0 +11.7 55 +23 +25 комфорт 1013.5 994.3
18 17.08 Ю 2-3
{6}
45 км ясно +17.5 +11.1 66 +18 +18 1014.2 994.7 +16.3 +22.3
21 17.08 Ю 3-5
{7}
50 км 6/0
[]
+15.5 +11.0 75 +15 +15 1014.8 995.1
00 18.08 Ю 3-5
{5}
50 км 4/0
[]
+14.0 +10.2 78 +13 +13 1015.4 995.6
03 18.08 Ю 1-2
{4}
40 км 4/1 1500 м
[]
+12.8 +10.1 84 +13 +13 1015.3 995.4
06 18.08 Ю 3-6
{6}
30 км 1/1 1500 м
[]
+17.8 +11.4 66 +18 +21 1015.0 995.5 +12.6 +18.1
09 18.08 Ю 4-10
{10}
30 км 1/0 1000 м
[]
+21.5 +9.9 48 +23 +28 комфорт 1014.3 995.1
12 18.08 Ю 4-11
{11}
25 км 1/0 1500 м
[]
+22.0 +8.3 41 +23 +28 комфорт 1013.7 994.5
15 18.08 Ю 3-7
{9}
35 км ясно +20.4 +6.3 40 +22 +23 комфорт 1013.2 993.8
18 18.08 ЮВ 2-3
{4}
50 км ясно +14.8 +6.0 56 +15 +15 1013.5 993.8 +14.8 +22.7
21 18.08 ЮВ 1-2
{3}
50 км ясно +11.5 +6.7 72 +11 +11 1012.8 992.9
00 19.08 ЮВ 2-3
{4}
50 км ясно +10.8 +7.3 79 +10 +10 1012.1 992.2
03 19.08 ЮВ 2-4
{4}
50 км ясно +11.7 +8.5 81 +11 +11 1011.0 991.2
06 19.08 ЮВ 2-6
{6}
30 км 6/6
[]
+16.1 +10.9 71 +16 +18 1009.5 990.0 +9.7 +16.1
09 19.08 Ю 3-7
{7}
35 км слаб. дождь {морось} 6/4 600 м
[]
+17.8 +12.8 73 +18 +21 1008.1 988.7
12 19.08 Ю 4-7
{9}
40 км в посл. час морось {ливн. осадки, дождь} 9/9 1000 м
[]
+17.0 +13.4 79 +17 +17 1007.9 988.4
15 19.08 Ю 3-8
{9}
4600 м слаб. дождь 9/9 200 м
[]
+15.4 +14.5 94 +15 +15 1008.1 988.6
18 19.08 Ю 2-6
{6}
7000 м дымка {ливн. осадки, дождь} 9/9 100 м
[]
+15.2 +14.9 98 +15 +15 1008.7 989.1 +15.1 +18.7 0.6
21 19.08 Ю 2-3
{4}
10 км дымка 9/9 100 м
[]
+15.4 +15.1 98 +15 +15 1009.6 990.0
00 20.08 ЮЗ 2-3
{5}
8000 м дымка 1/0 1000 м
[]
+12.7 +12.4 98 +12 +12 1011.1 991.3
03 20.08 Ю 1-2
{3}
1600 м дымка {туман} ясно +9.3 +9.2 99 +9 +9 1012.7 992.6
06 20.08 Ю 3-6
{6}
40 км {туман, метель} ясно +15.2 +12.9 86 +14 +17 1013.1 993.5 +8.5 +15.4
09 20.08 ЮЗ 4-8
{9}
26 км ясно +19.9 +12.1 61 +22 +27 комфорт 1013.7 994.4
12 20.08 ЮЗ 4-7
{10}
35 км 4/4 1000 м
[]
+18.6 +11.1 62 +19 +22 1015.0 995.5
15 20.08 Ю 2-4
{6}
45 км 9/9
[]
+16.8 +12.2 74 +17 +17 1015.4 995.8
18 20.08 Ю 2-3
{4}
50 км 1/1 1500 м
[]
+13.0 +11.1 88 +12 +12 1016.6 996.7 +13.0 +20.5
21 20.08 Ю 2-3
{3}
35 км 1/0
[]
+11.5 +10.9 96 +10 +10 1017.6 997.6
00 21.08 Ю 2-3
{3}
4100 м дымка {ливн. осадки, дождь} 1/0
[]
+11.1 +11.0 99 +10 +10 1018.3 998.3 0.1
03 21.08 Ю 2-3
{3}
3400 м в посл. час туман ясно +9.9 +9.8 99 +8 +8 1019.1 999.0
06 21.08 Ю 3-5
{6}
12 км {туман, метель} 6/6 100 м
[]
+13.6 +13.0 96 +12 +13 1019.6 999.7 +9.0 +13.9 4

 

Местоположение метеостанции Раутаваара Яла-Луоста (Финляндия): широта 63.38 долгота 28.66 высота над уровнем моря 166 м.

В архиве по умолчанию представлена погода в Раутаваара Яла-Луоста за последнюю неделю. Архивные данные за месяц целиком и за предыдущие месяцы, начиная с января 2011 года, Вы можете получить, выбрав интересующий диапазон дат из раскрывающегося списка и нажав кнопку "Ввод!".


*Определитесь, кто Вы:
робот инопланетянин человек

Внимание! Время в таблицах - всемирное. Для получения местного времени необходимо прибавить поправку, которая равна 1 ч.

Смотрите также архив погоды в соседних городах и на ближайших метеорологических станциях:

Погода в Юуке (Финляндия) (33 км)
Погода в Валтимо (Финляндия) (33 км)
Погода в Аэропорту Куопио (Финляндия) (60 км)
Погода в Лиексе (Финляндия) (70 км)
Погода в Куопио Маанинка (Финляндия) (73 км)
Погода в Куопио Ритониеми (Финляндия) (75 км)
Погода в Куопио Савилахти (Финляндия) (75 км)
Погода в Соткамо Куоланиеми (Финляндия) (83 км)
Погода в Виерема Каараккала (Финляндия) (88 км)
Погода в Йоэнсуу аэропорту (Финляндия) (93 км)

Пояснения к столбцам:

Ветер - указаны скорость ветра в м/с - средняя за 10 мин, порывы в срок и между сроками (в фигурных скобках) и направление, откуда дует ветер: С - северный, СВ - северо-восточный, В - восточный, ЮВ - юго-восточный, Ю - южный, ЮЗ - юго-западный, З - западный, СЗ - северо-западный.
Видимость - горизонтальная дальность видимости в метрах или километрах. При видимости от 1 до 10 км при отсутствии осадков обычно наблюдается дымка, при ухудшении видимости до 1 км и менее - туман. В сухую погоду видимость может ухудшаться дымом, пылью или мглою.
Явления - указаны атмосферные явления, наблюдавшиеся в срок или в последний час перед сроком; фигурными скобками обозначены явления, наблюдавшиеся между сроками (за 1-3 часа до срока); квадратными скобками обозначены град или гололедные отложения с указанием их диаметра в мм.
Облачность - указаны через наклонную черту общая и нижняя облачность в баллах и высота нижней границы облаков в метрах; квадратными скобками обозначены формы облаков: Ci - перистые, Cs - перисто-слоистые, Cc - перисто-кучевые, Ac - высококучевые, As - высокослоистые, Sc - слоисто-кучевые, Ns - слоисто-дождевые, Cu - кучевые, Cb - кучево-дождевые. Подробнее классификацию облаков см. в Атласе облаков (PDF).
T - Температура воздуха - температура, измеренная на высоте 2 м над землей.
Td - Температура точки росы - температура, при понижении до которой содержащийся в воздухе водяной пар достигнет насыщения.
f - Относительная влажность воздуха - влажноcть воздуха, измеренная на высоте 2 м над землей.
Te - Эффективная температура - температура, которую ощущает одетый по сезону человек в тени. Характеристика душности погоды. При расчете учитывается влияние влажности воздуха и скорости ветра на теплоощущения человека.
Tes - Эффективная температура на солнце - температура, которую ощущает человек, с поправкой на солнечный нагрев. Характеристика знойности погоды. Зависит от высоты солнца над горизонтом, облачности и скорости ветра. Ночью, в пасмурную погоду, а также при ветре 12 м/с и более поправка равна нулю.
P - Атмосферное давление - приведенное к уровню моря атмосферное давление.
Po - Атмосферное давление - измеренное на уровне метеостанции атмосферное давление.
Tmin - Минимальная температура - минимум температуры воздуха на высоте 2 м над землей.
Tmax - Максимальная температура - максимум температуры воздуха на высоте 2 м над землей.
R - Количество осадков - Количество выпавших осадков за период времени, мм. При наведении курсора мыши на число - период времени, за который выпало указанное количество осадков.
R24 - Количество осадков - Количество выпавших осадков за 24 часа, мм.
S - Снежный покров - Высота снежного покрова, см. При наведении курсора мыши на число - состояние снежного покрова и степень покрытия местности в баллах.